Time,TemperatureF,DewpointF,PressureIn,WindDirection,WindDirectionDegrees,WindSpeedMPH,WindSpeedGustMPH,Humidity,HourlyPrecipIn,Conditions,Clouds,dailyrainin,SolarRadiationWatts/m^2,SoftwareType,DateUTC
2013-03-06 00:00:00,16.7,13.8,29.73,NE,49,4.0,7.0,88,0.00,,,0.00,0.0,meteohub,2013-03-06 06:00:00,
2013-03-06 00:05:00,16.7,13.8,29.73,NE,50,2.0,7.0,88,0.00,,,0.00,0.0,meteohub,2013-03-06 06:05:00,
2013-03-06 00:10:00,16.7,13.8,29.73,NE,50,2.0,7.0,88,0.00,,,0.00,0.0,meteohub,2013-03-06 06:10:00,
2013-03-06 00:15:00,16.9,14.2,29.73,NE,49,4.0,6.0,89,0.00,,,0.00,0.0,meteohub,2013-03-06 06:15:00,
2013-03-06 00:20:00,16.9,14.0,29.73,NNE,26,4.0,6.0,88,0.00,,,0.00,0.0,meteohub,2013-03-06 06:20:00,
2013-03-06 00:25:00,16.9,14.2,29.73,NE,49,5.0,6.0,89,0.00,,,0.00,0.0,meteohub,2013-03-06 06:25:00,
2013-03-06 00:30:00,16.5,13.6,29.73,NE,49,2.0,6.0,88,0.00,,,0.00,0.0,meteohub,2013-03-06 06:30:00,
2013-03-06 00:35:00,16.5,13.6,29.73,NE,49,4.0,6.0,88,0.00,,,0.00,0.0,meteohub,2013-03-06 06:35:00,
2013-03-06 00:40:00,16.5,13.6,29.73,NE,48,4.0,6.0,88,0.00,,,0.00,0.0,meteohub,2013-03-06 06:40:00,
2013-03-06 00:45:00,16.7,14.0,29.73,NE,43,5.0,6.0,89,0.00,,,0.00,0.0,meteohub,2013-03-06 06:45:00,
2013-03-06 00:50:00,16.5,13.6,29.73,NE,54,4.0,6.0,88,0.00,,,0.00,0.0,meteohub,2013-03-06 06:50:00,
2013-03-06 00:55:00,16.5,13.8,29.73,NE,48,2.0,6.0,89,0.00,,,0.00,0.0,meteohub,2013-03-06 06:55:00,
2013-03-06 01:00:00,16.7,14.0,29.73,NE,49,1.0,6.0,89,0.00,,,0.00,0.0,meteohub,2013-03-06 07:00:00,
2013-03-06 01:05:00,16.7,14.0,29.73,NE,49,2.0,6.0,89,0.00,,,0.00,0.0,meteohub,2013-03-06 07:05:00,
2013-03-06 01:10:00,16.3,13.6,29.73,NE,49,4.0,6.0,89,0.00,,,0.00,0.0,meteohub,2013-03-06 07:10:00,
2013-03-06 01:15:00,16.3,13.6,29.73,NE,48,2.0,6.0,89,0.00,,,0.00,0.0,meteohub,2013-03-06 07:15:00,
2013-03-06 01:20:00,16.2,13.5,29.73,NNE,26,3.0,5.0,89,0.00,,,0.00,0.0,meteohub,2013-03-06 07:20:00,
2013-03-06 01:25:00,15.8,13.1,29.73,NNE,23,5.0,6.0,89,0.00,,,0.00,0.0,meteohub,2013-03-06 07:25:00,
2013-03-06 01:30:00,15.6,12.9,29.74,NNE,30,4.0,6.0,89,0.00,,,0.00,0.0,meteohub,2013-03-06 07:30:00,
2013-03-06 01:35:00,15.4,12.7,29.74,NNE,17,2.0,7.0,89,0.00,,,0.00,0.0,meteohub,2013-03-06 07:35:00,
2013-03-06 01:40:00,15.3,12.6,29.74,NNE,17,5.0,7.0,89,0.00,,,0.00,0.0,meteohub,2013-03-06 07:40:00,
2013-03-06 01:45:00,15.1,12.4,29.74,NNE,17,4.0,7.0,89,0.00,,,0.00,0.0,meteohub,2013-03-06 07:45:00,
2013-03-06 01:50:00,15.1,12.4,29.74,NNE,17,6.0,7.0,89,0.00,,,0.00,0.0,meteohub,2013-03-06 07:50:00,
2013-03-06 01:55:00,14.7,12.0,29.74,NNE,17,5.0,6.0,89,0.00,,,0.00,0.0,meteohub,2013-03-06 07:55:00,
2013-03-06 02:00:00,14.5,11.8,29.74,NNE,17,5.0,6.0,89,0.00,,,0.00,0.0,meteohub,2013-03-06 08:00:00,
2013-03-06 02:05:00,14.4,12.0,29.74,NNE,13,5.0,6.0,90,0.00,,,0.00,0.0,meteohub,2013-03-06 08:05:00,
2013-03-06 02:10:00,14.4,12.0,29.74,North,11,6.0,6.0,90,0.00,,,0.00,0.0,meteohub,2013-03-06 08:10:00,
2013-03-06 02:15:00,14.2,11.8,29.74,North,5,7.0,7.0,90,0.00,,,0.00,0.0,meteohub,2013-03-06 08:15:00,
2013-03-06 02:20:00,14.0,11.7,29.74,North,5,6.0,6.0,90,0.00,,,0.00,0.0,meteohub,2013-03-06 08:20:00,
2013-03-06 02:25:00,13.8,11.5,29.74,North,5,6.0,7.0,90,0.00,,,0.00,0.0,meteohub,2013-03-06 08:25:00,
2013-03-06 02:30:00,14.0,11.7,29.74,North,5,6.0,7.0,90,0.00,,,0.00,0.0,meteohub,2013-03-06 08:30:00,
2013-03-06 02:35:00,13.8,11.5,29.74,North,5,5.0,8.0,90,0.00,,,0.00,0.0,meteohub,2013-03-06 08:35:00,
2013-03-06 02:40:00,13.8,11.1,29.74,North,5,5.0,8.0,89,0.00,,,0.00,0.0,meteohub,2013-03-06 08:40:00,
2013-03-06 02:45:00,13.8,11.1,29.73,North,11,5.0,7.0,89,0.00,,,0.00,0.0,meteohub,2013-03-06 08:45:00,
2013-03-06 02:50:00,13.6,10.9,29.74,North,9,5.0,7.0,89,0.00,,,0.00,0.0,meteohub,2013-03-06 08:50:00,
2013-03-06 02:55:00,13.5,10.8,29.73,North,9,5.0,7.0,89,0.00,,,0.00,0.0,meteohub,2013-03-06 08:55:00,
2013-03-06 03:00:00,13.5,11.1,29.74,NNE,12,4.0,7.0,90,0.00,,,0.00,0.0,meteohub,2013-03-06 09:00:00,
2013-03-06 03:05:00,13.5,11.1,29.74,North,11,3.0,7.0,90,0.00,,,0.00,0.0,meteohub,2013-03-06 09:05:00,
2013-03-06 03:10:00,13.3,10.9,29.74,North,10,6.0,7.0,90,0.00,,,0.00,0.0,meteohub,2013-03-06 09:10:00,
2013-03-06 03:15:00,13.3,10.9,29.74,NNE,13,5.0,7.0,90,0.00,,,0.00,0.0,meteohub,2013-03-06 09:15:00,
2013-03-06 03:20:00,13.3,10.9,29.74,NNE,12,4.0,7.0,90,0.00,,,0.00,0.0,meteohub,2013-03-06 09:20:00,
2013-03-06 03:25:00,12.9,10.6,29.74,NNE,12,4.0,7.0,90,0.00,,,0.00,0.0,meteohub,2013-03-06 09:25:00,
2013-03-06 03:30:00,12.9,10.6,29.74,NNE,12,2.0,7.0,90,0.00,,,0.00,0.0,meteohub,2013-03-06 09:30:00,
2013-03-06 03:35:00,12.7,10.4,29.74,NNE,12,2.0,7.0,90,0.00,,,0.00,0.0,meteohub,2013-03-06 09:35:00,
2013-03-06 03:40:00,12.6,10.2,29.75,NNE,12,1.0,7.0,90,0.00,,,0.00,0.0,meteohub,2013-03-06 09:40:00,
2013-03-06 03:45:00,12.0,9.3,29.75,NNE,12,0.0,5.0,89,0.00,,,0.00,0.0,meteohub,2013-03-06 09:45:00,
2013-03-06 03:50:00,11.8,9.1,29.75,NNE,12,0.0,5.0,89,0.00,,,0.00,0.0,meteohub,2013-03-06 09:50:00,
2013-03-06 03:55:00,11.8,9.5,29.75,NNE,12,0.0,5.0,90,0.00,,,0.00,0.0,meteohub,2013-03-06 09:55:00,
2013-03-06 04:00:00,11.8,9.5,29.75,NNE,12,1.0,5.0,90,0.00,,,0.00,0.0,meteohub,2013-03-06 10:00:00,
2013-03-06 04:05:00,11.7,9.1,29.75,NNE,12,0.0,5.0,89,0.00,,,0.00,0.0,meteohub,2013-03-06 10:05:00,
2013-03-06 04:10:00,10.6,8.1,29.75,NNE,12,0.0,5.0,89,0.00,,,0.00,0.0,meteohub,2013-03-06 10:10:00,
2013-03-06 04:15:00,10.0,7.5,29.75,NNE,12,2.0,5.0,89,0.00,,,0.00,0.0,meteohub,2013-03-06 10:15:00,
2013-03-06 04:20:00,10.2,7.7,29.75,NNE,12,2.0,5.0,89,0.00,,,0.00,0.0,meteohub,2013-03-06 10:20:00,
2013-03-06 04:25:00,10.6,8.1,29.75,NNE,12,3.0,5.0,89,0.00,,,0.00,0.0,meteohub,2013-03-06 10:25:00,
2013-03-06 04:30:00,10.2,7.7,29.75,NNE,12,1.0,5.0,89,0.00,,,0.00,0.0,meteohub,2013-03-06 10:30:00,
2013-03-06 04:35:00,9.7,6.8,29.75,NNE,12,2.0,6.0,88,0.00,,,0.00,0.0,meteohub,2013-03-06 10:35:00,
2013-03-06 04:40:00,9.3,6.8,29.75,NNE,12,2.0,6.0,89,0.00,,,0.00,0.0,meteohub,2013-03-06 10:40:00,
2013-03-06 04:45:00,9.5,7.0,29.75,NNE,12,4.0,5.0,89,0.00,,,0.00,0.0,meteohub,2013-03-06 10:45:00,
2013-03-06 04:50:00,9.3,6.8,29.75,NNE,12,3.0,5.0,89,0.00,,,0.00,0.0,meteohub,2013-03-06 10:50:00,
2013-03-06 04:55:00,9.1,6.6,29.75,NNE,12,1.0,5.0,89,0.00,,,0.00,0.0,meteohub,2013-03-06 10:55:00,
2013-03-06 05:00:00,9.0,6.1,29.75,NNE,12,1.0,5.0,88,0.00,,,0.00,0.0,meteohub,2013-03-06 11:00:00,
2013-03-06 05:05:00,8.8,6.3,29.75,NNE,12,1.0,5.0,89,0.00,,,0.00,0.0,meteohub,2013-03-06 11:05:00,
2013-03-06 05:10:00,9.0,6.4,29.75,NNE,12,2.0,4.0,89,0.00,,,0.00,0.0,meteohub,2013-03-06 11:10:00,
2013-03-06 05:15:00,9.0,6.4,29.75,NNE,12,5.0,5.0,89,0.00,,,0.00,0.0,meteohub,2013-03-06 11:15:00,
2013-03-06 05:20:00,9.0,6.4,29.75,North,11,5.0,6.0,89,0.00,,,0.00,0.0,meteohub,2013-03-06 11:20:00,
2013-03-06 05:25:00,9.1,6.6,29.76,North,5,5.0,6.0,89,0.00,,,0.00,0.0,meteohub,2013-03-06 11:25:00,
2013-03-06 05:30:00,9.3,6.8,29.76,North,355,5.0,6.0,89,0.00,,,0.00,0.0,meteohub,2013-03-06 11:30:00,
2013-03-06 05:35:00,9.1,6.6,29.76,North,355,5.0,6.0,89,0.00,,,0.00,0.0,meteohub,2013-03-06 11:35:00,
2013-03-06 05:40:00,9.1,6.6,29.76,North,355,5.0,6.0,89,0.00,,,0.00,0.0,meteohub,2013-03-06 11:40:00,
2013-03-06 05:45:00,8.8,6.3,29.76,North,355,4.0,6.0,89,0.00,,,0.00,0.0,meteohub,2013-03-06 11:45:00,
2013-03-06 05:50:00,8.4,5.9,29.76,North,355,2.0,6.0,89,0.00,,,0.00,0.0,meteohub,2013-03-06 11:50:00,
2013-03-06 05:55:00,8.2,5.7,29.76,North,355,0.0,6.0,89,0.00,,,0.00,0.0,meteohub,2013-03-06 11:55:00,
2013-03-06 06:00:00,7.9,5.0,29.76,North,355,0.0,5.0,88,0.00,,,0.00,0.0,meteohub,2013-03-06 12:00:00,
2013-03-06 06:05:00,7.3,4.5,29.76,North,355,0.0,5.0,88,0.00,,,0.00,0.0,meteohub,2013-03-06 12:05:00,
2013-03-06 06:10:00,7.2,4.3,29.76,North,355,0.0,5.0,88,0.00,,,0.00,0.0,meteohub,2013-03-06 12:10:00,
2013-03-06 06:15:00,7.2,4.3,29.76,North,355,1.0,1.0,88,0.00,,,0.00,0.0,meteohub,2013-03-06 12:15:00,
2013-03-06 06:20:00,7.0,4.1,29.77,North,355,0.0,1.0,88,0.00,,,0.00,0.0,meteohub,2013-03-06 12:20:00,
2013-03-06 06:25:00,6.1,3.0,29.77,North,355,0.0,1.0,87,0.00,,,0.00,0.0,meteohub,2013-03-06 12:25:00,
2013-03-06 06:30:00,6.3,3.6,29.77,North,355,0.0,1.0,88,0.00,,,0.00,0.0,meteohub,2013-03-06 12:30:00,
2013-03-06 06:35:00,6.3,3.6,29.77,North,355,2.0,2.0,88,0.00,,,0.00,0.0,meteohub,2013-03-06 12:35:00,
2013-03-06 06:40:00,6.3,3.6,29.77,North,355,1.0,2.0,88,0.00,,,0.00,0.0,meteohub,2013-03-06 12:40:00,
2013-03-06 06:45:00,6.1,3.0,29.77,North,355,2.0,2.0,87,0.00,,,0.00,5.0,meteohub,2013-03-06 12:45:00,
2013-03-06 06:50:00,6.1,3.4,29.78,North,355,1.0,5.0,88,0.00,,,0.00,9.0,meteohub,2013-03-06 12:50:00,
2013-03-06 06:55:00,6.3,3.6,29.78,North,355,3.0,5.0,88,0.00,,,0.00,12.0,meteohub,2013-03-06 12:55:00,
2013-03-06 07:00:00,6.3,3.6,29.78,North,355,1.0,5.0,88,0.00,,,0.00,18.0,meteohub,2013-03-06 13:00:00,
2013-03-06 07:05:00,6.3,3.6,29.78,North,355,1.0,5.0,88,0.00,,,0.00,23.0,meteohub,2013-03-06 13:05:00,
2013-03-06 07:10:00,6.1,3.4,29.78,North,355,2.0,5.0,88,0.00,,,0.00,26.0,meteohub,2013-03-06 13:10:00,
2013-03-06 07:15:00,6.1,3.4,29.78,North,355,0.0,5.0,88,0.00,,,0.00,30.0,meteohub,2013-03-06 13:15:00,
2013-03-06 07:20:00,6.1,3.4,29.78,North,355,0.0,4.0,88,0.00,,,0.00,35.0,meteohub,2013-03-06 13:20:00,
2013-03-06 07:25:00,6.1,3.0,29.78,North,355,0.0,4.0,87,0.00,,,0.00,44.0,meteohub,2013-03-06 13:25:00,
2013-03-06 07:30:00,5.7,3.0,29.78,North,355,2.0,4.0,88,0.00,,,0.00,53.0,meteohub,2013-03-06 13:30:00,
2013-03-06 07:35:00,6.3,3.6,29.78,North,355,0.0,3.0,88,0.00,,,0.00,62.0,meteohub,2013-03-06 13:35:00,
2013-03-06 07:40:00,6.4,3.7,29.78,North,355,1.0,3.0,88,0.00,,,0.00,74.0,meteohub,2013-03-06 13:40:00,
2013-03-06 07:45:00,6.8,3.9,29.78,North,355,0.0,3.0,88,0.00,,,0.00,84.0,meteohub,2013-03-06 13:45:00,
2013-03-06 07:50:00,6.8,3.9,29.78,North,355,1.0,3.0,88,0.00,,,0.00,95.0,meteohub,2013-03-06 13:50:00,
2013-03-06 07:55:00,6.8,3.7,29.78,North,355,0.0,3.0,87,0.00,,,0.00,105.0,meteohub,2013-03-06 13:55:00,
2013-03-06 08:00:00,7.0,4.1,29.78,North,355,3.0,4.0,88,0.00,,,0.00,120.0,meteohub,2013-03-06 14:00:00,
2013-03-06 08:05:00,8.2,5.7,29.78,North,355,2.0,4.0,89,0.00,,,0.00,134.0,meteohub,2013-03-06 14:05:00,
2013-03-06 08:10:00,8.6,5.7,29.78,North,355,2.0,4.0,88,0.00,,,0.00,148.0,meteohub,2013-03-06 14:10:00,
2013-03-06 08:15:00,9.7,7.2,29.79,North,355,5.0,6.0,89,0.00,,,0.00,162.0,meteohub,2013-03-06 14:15:00,
2013-03-06 08:20:00,10.2,7.7,29.79,North,0,5.0,6.0,89,0.00,,,0.00,176.0,meteohub,2013-03-06 14:20:00,
2013-03-06 08:25:00,10.9,8.4,29.79,NNW,333,5.0,6.0,89,0.00,,,0.00,188.0,meteohub,2013-03-06 14:25:00,
2013-03-06 08:30:00,11.1,8.6,29.79,North,0,4.0,7.0,89,0.00,,,0.00,204.0,meteohub,2013-03-06 14:30:00,
2013-03-06 08:35:00,11.5,9.0,29.79,North,355,2.0,7.0,89,0.00,,,0.00,218.0,meteohub,2013-03-06 14:35:00,
2013-03-06 08:40:00,11.8,9.1,29.79,North,355,2.0,7.0,89,0.00,,,0.00,236.0,meteohub,2013-03-06 14:40:00,
2013-03-06 08:45:00,12.2,9.5,29.79,NNW,342,6.0,7.0,89,0.00,,,0.00,251.0,meteohub,2013-03-06 14:45:00,
2013-03-06 08:51:00,12.6,9.7,29.79,North,350,8.0,8.0,88,0.00,,,0.00,267.0,meteohub,2013-03-06 14:51:00,
2013-03-06 08:56:00,12.6,9.7,29.79,NW,325,5.0,7.0,88,0.00,,,0.00,278.0,meteohub,2013-03-06 14:56:00,
2013-03-06 09:01:00,12.9,10.0,29.79,North,5,2.0,9.0,88,0.00,,,0.00,287.0,meteohub,2013-03-06 15:01:00,
2013-03-06 09:06:00,13.1,10.0,29.79,NW,326,9.0,9.0,87,0.00,,,0.00,299.0,meteohub,2013-03-06 15:06:00,
2013-03-06 09:11:00,13.6,10.6,29.80,NW,318,4.0,9.0,87,0.00,,,0.00,313.0,meteohub,2013-03-06 15:11:00,
2013-03-06 09:16:00,13.8,10.8,29.80,NW,319,4.0,9.0,87,0.00,,,0.00,332.0,meteohub,2013-03-06 15:16:00,
2013-03-06 09:21:00,14.0,10.6,29.80,North,355,8.0,10.0,86,0.00,,,0.00,345.0,meteohub,2013-03-06 15:21:00,
2013-03-06 09:26:00,14.2,10.6,29.80,NNE,15,9.0,10.0,85,0.00,,,0.00,362.0,meteohub,2013-03-06 15:26:00,
2013-03-06 09:31:00,14.4,10.4,29.79,North,9,7.0,10.0,84,0.00,,,0.00,380.0,meteohub,2013-03-06 15:31:00,
2013-03-06 09:36:00,14.7,10.6,29.79,NNW,336,5.0,10.0,83,0.00,,,0.00,403.0,meteohub,2013-03-06 15:36:00,
2013-03-06 09:41:00,15.1,10.9,29.79,NNE,17,8.0,11.0,83,0.00,,,0.00,425.0,meteohub,2013-03-06 15:41:00,
2013-03-06 09:46:00,15.3,10.4,29.79,NNE,16,6.0,11.0,81,0.00,,,0.00,408.0,meteohub,2013-03-06 15:46:00,
2013-03-06 09:51:00,15.4,10.4,29.79,NE,46,10.0,11.0,80,0.00,,,0.00,468.0,meteohub,2013-03-06 15:51:00,
2013-03-06 09:56:00,15.4,10.0,29.79,NNW,346,9.0,11.0,79,0.00,,,0.00,478.0,meteohub,2013-03-06 15:56:00,
2013-03-06 10:01:00,16.2,10.8,29.79,NE,55,14.0,14.0,79,0.00,,,0.00,469.0,meteohub,2013-03-06 16:01:00,
2013-03-06 10:06:00,16.2,10.2,29.79,North,9,14.0,14.0,77,0.00,,,0.00,478.0,meteohub,2013-03-06 16:06:00,
2013-03-06 10:11:00,16.2,10.6,29.79,NNE,27,8.0,13.0,78,0.00,,,0.00,501.0,meteohub,2013-03-06 16:11:00,
2013-03-06 10:16:00,16.5,10.6,29.79,North,355,10.0,15.0,77,0.00,,,0.00,531.0,meteohub,2013-03-06 16:16:00,
2013-03-06 10:21:00,16.3,10.0,29.79,NNE,15,7.0,15.0,76,0.00,,,0.00,285.0,meteohub,2013-03-06 16:21:00,
2013-03-06 10:26:00,16.3,9.9,29.79,NE,48,6.0,15.0,75,0.00,,,0.00,540.0,meteohub,2013-03-06 16:26:00,
2013-03-06 10:31:00,17.2,10.8,29.79,NE,34,14.0,15.0,75,0.00,,,0.00,563.0,meteohub,2013-03-06 16:31:00,
2013-03-06 10:36:00,17.2,10.4,29.79,NE,41,10.0,15.0,74,0.00,,,0.00,587.0,meteohub,2013-03-06 16:36:00,
2013-03-06 10:41:00,17.4,10.2,29.78,NNE,31,9.0,15.0,73,0.00,,,0.00,601.0,meteohub,2013-03-06 16:41:00,
2013-03-06 10:46:00,17.8,10.9,29.78,North,355,6.0,15.0,74,0.00,,,0.00,209.0,meteohub,2013-03-06 16:46:00,
2013-03-06 10:51:00,17.4,10.6,29.79,NNW,346,7.0,15.0,74,0.00,,,0.00,206.0,meteohub,2013-03-06 16:51:00,
2013-03-06 10:56:00,18.0,11.1,29.78,NNW,341,6.0,13.0,74,0.00,,,0.00,195.0,meteohub,2013-03-06 16:56:00,
2013-03-06 11:01:00,18.1,10.9,29.79,WNW,291,7.0,13.0,73,0.00,,,0.00,195.0,meteohub,2013-03-06 17:01:00,
2013-03-06 11:06:00,18.5,10.9,29.78,NW,318,6.0,13.0,72,0.00,,,0.00,659.0,meteohub,2013-03-06 17:06:00,
2013-03-06 11:11:00,17.8,10.2,29.78,NNE,18,6.0,14.0,72,0.00,,,0.00,650.0,meteohub,2013-03-06 17:11:00,
2013-03-06 11:16:00,18.1,10.6,29.78,North,5,8.0,14.0,72,0.00,,,0.00,668.0,meteohub,2013-03-06 17:16:00,
2013-03-06 11:21:00,18.3,11.1,29.78,NNE,23,5.0,15.0,73,0.00,,,0.00,668.0,meteohub,2013-03-06 17:21:00,
2013-03-06 11:26:00,18.5,11.3,29.78,NNW,340,10.0,15.0,73,0.00,,,0.00,650.0,meteohub,2013-03-06 17:26:00,
2013-03-06 11:31:00,19.0,11.5,29.78,NNW,336,7.0,15.0,72,0.00,,,0.00,664.0,meteohub,2013-03-06 17:31:00,
2013-03-06 11:36:00,18.7,11.1,29.77,NNW,335,7.0,13.0,72,0.00,,,0.00,650.0,meteohub,2013-03-06 17:36:00,
2013-03-06 11:41:00,18.7,11.5,29.78,WNW,291,10.0,13.0,73,0.00,,,0.00,566.0,meteohub,2013-03-06 17:41:00,
2013-03-06 11:46:00,19.0,11.1,29.78,North,5,6.0,14.0,71,0.00,,,0.00,585.0,meteohub,2013-03-06 17:46:00,
2013-03-06 11:51:00,18.9,11.3,29.78,NNW,344,6.0,14.0,72,0.00,,,0.00,629.0,meteohub,2013-03-06 17:51:00,
2013-03-06 11:56:00,18.9,11.3,29.77,NW,321,4.0,12.0,72,0.00,,,0.00,763.0,meteohub,2013-03-06 17:56:00,
2013-03-06 12:01:00,19.0,11.5,29.78,North,349,8.0,12.0,72,0.00,,,0.00,450.0,meteohub,2013-03-06 18:01:00,
2013-03-06 12:06:00,19.2,12.0,29.77,NNE,32,8.0,14.0,73,0.00,,,0.00,689.0,meteohub,2013-03-06 18:06:00,
2013-03-06 12:11:00,20.3,12.4,29.77,WNW,284,4.0,14.0,71,0.00,,,0.00,712.0,meteohub,2013-03-06 18:11:00,
2013-03-06 12:16:00,20.1,12.2,29.77,NE,36,2.0,14.0,71,0.00,,,0.00,744.0,meteohub,2013-03-06 18:16:00,
2013-03-06 12:21:00,20.5,12.6,29.77,NNW,329,8.0,12.0,71,0.00,,,0.00,659.0,meteohub,2013-03-06 18:21:00,
2013-03-06 12:26:00,20.5,12.9,29.77,North,9,11.0,12.0,72,0.00,,,0.00,696.0,meteohub,2013-03-06 18:26:00,
2013-03-06 12:31:00,20.5,12.6,29.77,North,355,10.0,12.0,71,0.00,,,0.00,693.0,meteohub,2013-03-06 18:31:00,
2013-03-06 12:36:00,19.9,12.0,29.76,North,351,10.0,12.0,71,0.00,,,0.00,272.0,meteohub,2013-03-06 18:36:00,
2013-03-06 12:41:00,20.3,12.4,29.76,NNW,341,10.0,13.0,71,0.00,,,0.00,664.0,meteohub,2013-03-06 18:41:00,
2013-03-06 12:46:00,20.8,13.6,29.76,NW,315,8.0,13.0,73,0.00,,,0.00,686.0,meteohub,2013-03-06 18:46:00,
2013-03-06 12:51:00,19.9,12.4,29.76,WNW,297,6.0,13.0,72,0.00,,,0.00,686.0,meteohub,2013-03-06 18:51:00,
2013-03-06 12:56:00,20.5,12.6,29.76,NW,308,6.0,13.0,71,0.00,,,0.00,745.0,meteohub,2013-03-06 18:56:00,
2013-03-06 13:01:00,20.8,13.3,29.76,WNW,286,8.0,13.0,72,0.00,,,0.00,271.0,meteohub,2013-03-06 19:01:00,
2013-03-06 13:06:00,21.0,12.7,29.76,NW,309,6.0,15.0,70,0.00,,,0.00,686.0,meteohub,2013-03-06 19:06:00,
2013-03-06 13:11:00,21.0,13.1,29.76,NW,315,7.0,15.0,71,0.00,,,0.00,301.0,meteohub,2013-03-06 19:11:00,
2013-03-06 13:16:00,20.7,12.7,29.75,NNW,347,6.0,15.0,71,0.00,,,0.00,396.0,meteohub,2013-03-06 19:16:00,
2013-03-06 13:21:00,21.2,13.3,29.75,NE,43,7.0,15.0,71,0.00,,,0.00,656.0,meteohub,2013-03-06 19:21:00,
2013-03-06 13:26:00,21.0,12.7,29.75,NNW,338,9.0,13.0,70,0.00,,,0.00,417.0,meteohub,2013-03-06 19:26:00,
2013-03-06 13:31:00,21.2,13.3,29.75,NW,320,11.0,13.0,71,0.00,,,0.00,188.0,meteohub,2013-03-06 19:31:00,
2013-03-06 13:36:00,22.1,13.8,29.75,NNW,339,9.0,13.0,70,0.00,,,0.00,738.0,meteohub,2013-03-06 19:36:00,
2013-03-06 13:42:00,22.1,13.1,29.75,WNW,302,11.0,12.0,68,0.00,,,0.00,638.0,meteohub,2013-03-06 19:42:00,
2013-03-06 13:47:00,21.9,13.3,29.75,NW,319,1.0,12.0,69,0.00,,,0.00,288.0,meteohub,2013-03-06 19:47:00,
2013-03-06 13:52:00,22.1,13.5,29.75,West,273,8.0,14.0,69,0.00,,,0.00,221.0,meteohub,2013-03-06 19:52:00,
2013-03-06 13:57:00,22.3,13.6,29.75,NW,305,7.0,14.0,69,0.00,,,0.00,260.0,meteohub,2013-03-06 19:57:00,
2013-03-06 14:02:00,21.6,12.9,29.75,NNW,348,8.0,16.0,69,0.00,,,0.00,584.0,meteohub,2013-03-06 20:02:00,
2013-03-06 14:07:00,21.6,12.9,29.75,NW,323,9.0,16.0,69,0.00,,,0.00,610.0,meteohub,2013-03-06 20:07:00,
2013-03-06 14:12:00,22.3,13.3,29.75,WNW,299,11.0,16.0,68,0.00,,,0.00,555.0,meteohub,2013-03-06 20:12:00,
2013-03-06 14:17:00,22.8,13.5,29.75,NW,319,9.0,16.0,67,0.00,,,0.00,543.0,meteohub,2013-03-06 20:17:00,
2013-03-06 14:22:00,22.8,13.5,29.75,NW,315,6.0,16.0,67,0.00,,,0.00,536.0,meteohub,2013-03-06 20:22:00,
2013-03-06 14:27:00,22.5,13.5,29.74,NW,325,12.0,16.0,68,0.00,,,0.00,584.0,meteohub,2013-03-06 20:27:00,
2013-03-06 14:32:00,22.5,13.5,29.75,North,5,8.0,16.0,68,0.00,,,0.00,566.0,meteohub,2013-03-06 20:32:00,
2013-03-06 14:37:00,22.5,13.1,29.74,NNW,341,6.0,16.0,67,0.00,,,0.00,561.0,meteohub,2013-03-06 20:37:00,
2013-03-06 14:42:00,22.8,13.1,29.74,NNW,336,11.0,16.0,66,0.00,,,0.00,422.0,meteohub,2013-03-06 20:42:00,
2013-03-06 14:47:00,22.6,13.3,29.74,NW,323,11.0,16.0,67,0.00,,,0.00,490.0,meteohub,2013-03-06 20:47:00,
2013-03-06 14:52:00,23.2,13.5,29.74,NNW,342,14.0,16.0,66,0.00,,,0.00,135.0,meteohub,2013-03-06 20:52:00,
2013-03-06 14:57:00,23.4,13.6,29.74,NW,313,16.0,16.0,66,0.00,,,0.00,497.0,meteohub,2013-03-06 20:57:00,
2013-03-06 15:02:00,23.5,13.8,29.74,NNW,348,5.0,16.0,66,0.00,,,0.00,455.0,meteohub,2013-03-06 21:02:00,
2013-03-06 15:07:00,24.1,14.0,29.74,NNW,338,13.0,16.0,65,0.00,,,0.00,469.0,meteohub,2013-03-06 21:07:00,
2013-03-06 15:12:00,23.5,13.5,29.74,ENE,75,7.0,16.0,65,0.00,,,0.00,464.0,meteohub,2013-03-06 21:12:00,
2013-03-06 15:17:00,23.5,13.5,29.74,ENE,59,5.0,16.0,65,0.00,,,0.00,213.0,meteohub,2013-03-06 21:17:00,
2013-03-06 15:22:00,23.7,13.6,29.73,NNW,329,8.0,14.0,65,0.00,,,0.00,417.0,meteohub,2013-03-06 21:22:00,
2013-03-06 15:27:00,24.3,14.2,29.73,NNW,335,9.0,14.0,65,0.00,,,0.00,403.0,meteohub,2013-03-06 21:27:00,
2013-03-06 15:32:00,23.7,13.6,29.73,North,5,10.0,16.0,65,0.00,,,0.00,403.0,meteohub,2013-03-06 21:32:00,
2013-03-06 15:37:00,23.7,13.6,29.73,NW,319,13.0,16.0,65,0.00,,,0.00,396.0,meteohub,2013-03-06 21:37:00,
2013-03-06 15:42:00,23.7,14.0,29.73,NNW,346,9.0,14.0,66,0.00,,,0.00,360.0,meteohub,2013-03-06 21:42:00,
2013-03-06 15:47:00,24.1,14.0,29.73,NW,313,5.0,14.0,65,0.00,,,0.00,346.0,meteohub,2013-03-06 21:47:00,
2013-03-06 15:52:00,24.4,14.4,29.73,NNW,333,6.0,14.0,65,0.00,,,0.00,334.0,meteohub,2013-03-06 21:52:00,
2013-03-06 15:57:00,24.3,13.8,29.73,North,355,7.0,14.0,64,0.00,,,0.00,318.0,meteohub,2013-03-06 21:57:00,
2013-03-06 16:02:00,24.1,14.0,29.73,NNW,330,6.0,14.0,65,0.00,,,0.00,306.0,meteohub,2013-03-06 22:02:00,
2013-03-06 16:07:00,24.3,14.2,29.73,NNW,336,7.0,14.0,65,0.00,,,0.00,290.0,meteohub,2013-03-06 22:07:00,
2013-03-06 16:12:00,24.1,14.0,29.73,NNW,336,7.0,14.0,65,0.00,,,0.00,278.0,meteohub,2013-03-06 22:12:00,
2013-03-06 16:17:00,24.4,14.7,29.73,NW,306,8.0,12.0,66,0.00,,,0.00,265.0,meteohub,2013-03-06 22:17:00,
2013-03-06 16:22:00,24.3,13.8,29.73,NNW,342,8.0,12.0,64,0.00,,,0.00,253.0,meteohub,2013-03-06 22:22:00,
2013-03-06 16:27:00,24.4,14.4,29.73,West,260,12.0,13.0,65,0.00,,,0.00,237.0,meteohub,2013-03-06 22:27:00,
2013-03-06 16:32:00,24.4,13.6,29.73,NW,320,10.0,13.0,63,0.00,,,0.00,216.0,meteohub,2013-03-06 22:32:00,
2013-03-06 16:37:00,24.1,13.6,29.73,North,5,6.0,14.0,64,0.00,,,0.00,130.0,meteohub,2013-03-06 22:37:00,
2013-03-06 16:42:00,24.3,13.8,29.73,WNW,284,10.0,14.0,64,0.00,,,0.00,188.0,meteohub,2013-03-06 22:42:00,
2013-03-06 16:47:00,24.3,13.8,29.73,WNW,294,7.0,14.0,64,0.00,,,0.00,107.0,meteohub,2013-03-06 22:47:00,
2013-03-06 16:52:00,24.4,14.0,29.73,North,350,8.0,14.0,64,0.00,,,0.00,151.0,meteohub,2013-03-06 22:52:00,
2013-03-06 16:57:00,24.1,14.0,29.73,NNE,14,8.0,12.0,65,0.00,,,0.00,134.0,meteohub,2013-03-06 22:57:00,
2013-03-06 17:02:00,24.4,14.4,29.73,NNW,330,6.0,12.0,65,0.00,,,0.00,120.0,meteohub,2013-03-06 23:02:00,
2013-03-06 17:07:00,24.3,13.8,29.73,North,5,7.0,12.0,64,0.00,,,0.00,95.0,meteohub,2013-03-06 23:07:00,
2013-03-06 17:12:00,24.1,14.0,29.73,NW,309,7.0,13.0,65,0.00,,,0.00,84.0,meteohub,2013-03-06 23:12:00,
2013-03-06 17:17:00,23.7,13.6,29.73,NW,326,7.0,13.0,65,0.00,,,0.00,39.0,meteohub,2013-03-06 23:17:00,
2013-03-06 17:22:00,23.7,14.0,29.73,North,350,4.0,13.0,66,0.00,,,0.00,54.0,meteohub,2013-03-06 23:22:00,
2013-03-06 17:27:00,23.5,13.8,29.73,NNW,327,5.0,13.0,66,0.00,,,0.00,47.0,meteohub,2013-03-06 23:27:00,
2013-03-06 17:32:00,23.5,13.8,29.73,WNW,300,10.0,13.0,66,0.00,,,0.00,30.0,meteohub,2013-03-06 23:32:00,
2013-03-06 17:37:00,23.4,13.6,29.73,NNW,341,11.0,12.0,66,0.00,,,0.00,28.0,meteohub,2013-03-06 23:37:00,
2013-03-06 17:42:00,23.4,13.6,29.74,NW,311,7.0,12.0,66,0.00,,,0.00,19.0,meteohub,2013-03-06 23:42:00,
2013-03-06 17:47:00,23.2,13.5,29.73,NNW,346,5.0,12.0,66,0.00,,,0.00,16.0,meteohub,2013-03-06 23:47:00,
2013-03-06 17:52:00,23.0,13.6,29.74,NW,304,5.0,12.0,67,0.00,,,0.00,12.0,meteohub,2013-03-06 23:52:00,
2013-03-06 17:57:00,22.8,13.5,29.74,NW,326,8.0,11.0,67,0.00,,,0.00,11.0,meteohub,2013-03-06 23:57:00,
2013-03-06 18:02:00,22.6,13.3,29.74,North,350,7.0,11.0,67,0.00,,,0.00,7.0,meteohub,2013-03-07 00:02:00,
2013-03-06 18:07:00,22.5,13.5,29.74,NNW,342,6.0,11.0,68,0.00,,,0.00,0.0,meteohub,2013-03-07 00:07:00,
2013-03-06 18:12:00,22.5,13.5,29.73,NNW,344,6.0,11.0,68,0.00,,,0.00,0.0,meteohub,2013-03-07 00:12:00,
2013-03-06 18:17:00,22.3,13.3,29.73,NNW,340,6.0,11.0,68,0.00,,,0.00,0.0,meteohub,2013-03-07 00:17:00,
2013-03-06 18:22:00,21.9,13.3,29.73,North,351,4.0,9.0,69,0.00,,,0.00,0.0,meteohub,2013-03-07 00:22:00,
2013-03-06 18:27:00,21.7,13.1,29.74,NNW,341,6.0,9.0,69,0.00,,,0.00,0.0,meteohub,2013-03-07 00:27:00,
2013-03-06 18:32:00,21.7,13.5,29.74,NNW,336,8.0,9.0,70,0.00,,,0.00,0.0,meteohub,2013-03-07 00:32:00,
2013-03-06 18:37:00,21.7,13.5,29.74,NNW,333,6.0,9.0,70,0.00,,,0.00,0.0,meteohub,2013-03-07 00:37:00,
2013-03-06 18:42:00,21.6,13.3,29.74,NNW,334,5.0,9.0,70,0.00,,,0.00,0.0,meteohub,2013-03-07 00:42:00,
2013-03-06 18:47:00,21.6,13.3,29.74,NNW,329,4.0,10.0,70,0.00,,,0.00,0.0,meteohub,2013-03-07 00:47:00,
2013-03-06 18:52:00,21.6,13.3,29.74,NW,311,5.0,10.0,70,0.00,,,0.00,0.0,meteohub,2013-03-07 00:52:00,
2013-03-06 18:57:00,21.6,13.3,29.74,NNW,332,6.0,9.0,70,0.00,,,0.00,0.0,meteohub,2013-03-07 00:57:00,
2013-03-06 19:02:00,21.6,13.3,29.74,NW,323,5.0,9.0,70,0.00,,,0.00,0.0,meteohub,2013-03-07 01:02:00,
2013-03-06 19:07:00,21.4,13.1,29.75,NW,317,7.0,8.0,70,0.00,,,0.00,0.0,meteohub,2013-03-07 01:07:00,
2013-03-06 19:12:00,21.4,13.5,29.75,NNW,339,6.0,8.0,71,0.00,,,0.00,0.0,meteohub,2013-03-07 01:12:00,
2013-03-06 19:17:00,21.4,13.5,29.75,NNW,340,6.0,8.0,71,0.00,,,0.00,0.0,meteohub,2013-03-07 01:17:00,
2013-03-06 19:22:00,21.4,13.5,29.74,NNW,333,5.0,8.0,71,0.00,,,0.00,0.0,meteohub,2013-03-07 01:22:00,
2013-03-06 19:27:00,21.4,13.5,29.74,NNW,342,5.0,9.0,71,0.00,,,0.00,0.0,meteohub,2013-03-07 01:27:00,
2013-03-06 19:32:00,21.4,13.5,29.74,North,5,5.0,-999.0,71,0.00,,,0.00,0.0,meteohub,2013-03-07 01:32:00,
2013-03-06 19:37:00,21.4,13.5,29.74,NNW,348,7.0,9.0,71,0.00,,,0.00,0.0,meteohub,2013-03-07 01:37:00,
2013-03-06 19:42:00,21.4,13.8,29.74,North,351,5.0,9.0,72,0.00,,,0.00,0.0,meteohub,2013-03-07 01:42:00,
2013-03-06 19:47:00,21.2,13.6,29.74,North,5,4.0,9.0,72,0.00,,,0.00,0.0,meteohub,2013-03-07 01:47:00,
2013-03-06 19:52:00,21.0,13.5,29.75,North,355,5.0,8.0,72,0.00,,,0.00,0.0,meteohub,2013-03-07 01:52:00,
2013-03-06 19:57:00,21.0,13.5,29.75,NNE,13,4.0,8.0,72,0.00,,,0.00,0.0,meteohub,2013-03-07 01:57:00,
2013-03-06 20:02:00,21.0,13.8,29.75,North,0,5.0,8.0,73,0.00,,,0.00,0.0,meteohub,2013-03-07 02:02:00,
2013-03-06 20:07:00,21.0,13.8,29.75,NNE,24,5.0,7.0,73,0.00,,,0.00,0.0,meteohub,2013-03-07 02:07:00,
2013-03-06 20:12:00,21.0,13.8,29.75,North,5,5.0,8.0,73,0.00,,,0.00,0.0,meteohub,2013-03-07 02:12:00,
2013-03-06 20:17:00,20.8,13.6,29.75,North,355,7.0,8.0,73,0.00,,,0.00,0.0,meteohub,2013-03-07 02:17:00,
2013-03-06 20:22:00,20.7,13.5,29.75,NNW,342,6.0,8.0,73,0.00,,,0.00,0.0,meteohub,2013-03-07 02:22:00,
2013-03-06 20:27:00,20.7,13.5,29.75,North,0,6.0,8.0,73,0.00,,,0.00,0.0,meteohub,2013-03-07 02:27:00,
2013-03-06 20:32:00,20.8,13.6,29.75,North,0,6.0,8.0,73,0.00,,,0.00,0.0,meteohub,2013-03-07 02:32:00,
2013-03-06 20:37:00,20.8,13.6,29.75,North,0,5.0,8.0,73,0.00,,,0.00,0.0,meteohub,2013-03-07 02:37:00,
2013-03-06 20:42:00,20.7,13.5,29.76,North,355,5.0,8.0,73,0.00,,,0.00,0.0,meteohub,2013-03-07 02:42:00,
2013-03-06 20:47:00,20.5,13.3,29.76,North,355,6.0,8.0,73,0.00,,,0.00,0.0,meteohub,2013-03-07 02:47:00,
2013-03-06 20:52:00,20.7,13.5,29.76,North,355,4.0,7.0,73,0.00,,,0.00,0.0,meteohub,2013-03-07 02:52:00,
2013-03-06 20:57:00,20.7,13.6,29.76,North,355,6.0,7.0,74,0.00,,,0.00,0.0,meteohub,2013-03-07 02:57:00,
2013-03-06 21:02:00,20.8,13.6,29.76,North,355,6.0,7.0,73,0.00,,,0.00,0.0,meteohub,2013-03-07 03:02:00,
2013-03-06 21:07:00,20.7,13.6,29.76,North,355,4.0,7.0,74,0.00,,,0.00,0.0,meteohub,2013-03-07 03:07:00,
2013-03-06 21:12:00,20.5,13.5,29.76,North,5,3.0,7.0,74,0.00,,,0.00,0.0,meteohub,2013-03-07 03:12:00,
2013-03-06 21:17:00,20.1,13.1,29.76,North,5,0.0,7.0,74,0.00,,,0.00,0.0,meteohub,2013-03-07 03:17:00,
2013-03-06 21:22:00,20.1,13.5,29.76,North,5,4.0,7.0,75,0.00,,,0.00,0.0,meteohub,2013-03-07 03:22:00,
2013-03-06 21:27:00,19.8,12.7,29.76,North,5,4.0,6.0,74,0.00,,,0.00,0.0,meteohub,2013-03-07 03:27:00,
2013-03-06 21:32:00,19.6,12.9,29.76,North,5,4.0,5.0,75,0.00,,,0.00,0.0,meteohub,2013-03-07 03:32:00,
2013-03-06 21:37:00,19.4,13.1,29.76,North,5,2.0,5.0,76,0.00,,,0.00,0.0,meteohub,2013-03-07 03:37:00,
2013-03-06 21:42:00,19.6,13.3,29.76,North,5,1.0,5.0,76,0.00,,,0.00,0.0,meteohub,2013-03-07 03:42:00,
2013-03-06 21:47:00,19.6,13.3,29.76,North,5,2.0,5.0,76,0.00,,,0.00,0.0,meteohub,2013-03-07 03:47:00,
2013-03-06 21:53:00,19.6,13.6,29.76,North,5,1.0,4.0,77,0.00,,,0.00,0.0,meteohub,2013-03-07 03:53:00,
2013-03-06 21:57:00,19.8,14.0,29.76,North,5,1.0,4.0,78,0.00,,,0.00,0.0,meteohub,2013-03-07 03:57:00,
2013-03-06 22:03:00,19.0,13.1,29.75,North,5,0.0,2.0,77,0.00,,,0.00,0.0,meteohub,2013-03-07 04:03:00,
2013-03-06 22:08:00,19.4,13.6,29.76,North,5,0.0,2.0,78,0.00,,,0.00,0.0,meteohub,2013-03-07 04:08:00,
2013-03-06 22:13:00,19.9,13.8,29.75,North,5,0.0,2.0,77,0.00,,,0.00,0.0,meteohub,2013-03-07 04:13:00,
2013-03-06 22:18:00,19.4,13.6,29.75,North,5,0.0,2.0,78,0.00,,,0.00,0.0,meteohub,2013-03-07 04:18:00,
2013-03-06 22:23:00,18.9,12.9,29.76,North,5,0.0,2.0,77,0.00,,,0.00,0.0,meteohub,2013-03-07 04:23:00,
2013-03-06 22:28:00,18.5,13.1,29.75,North,5,0.0,2.0,79,0.00,,,0.00,0.0,meteohub,2013-03-07 04:28:00,
2013-03-06 22:33:00,18.3,12.9,29.75,North,5,0.0,2.0,79,0.00,,,0.00,0.0,meteohub,2013-03-07 04:33:00,
2013-03-06 22:38:00,18.0,12.6,29.75,North,5,0.0,2.0,79,0.00,,,0.00,0.0,meteohub,2013-03-07 04:38:00,
2013-03-06 22:43:00,17.8,12.7,29.75,North,5,0.0,2.0,80,0.00,,,0.00,0.0,meteohub,2013-03-07 04:43:00,
2013-03-06 22:48:00,18.3,13.3,29.75,North,5,0.0,2.0,80,0.00,,,0.00,0.0,meteohub,2013-03-07 04:48:00,
2013-03-06 22:53:00,18.0,12.2,29.75,North,5,0.0,2.0,78,0.00,,,0.00,0.0,meteohub,2013-03-07 04:53:00,
2013-03-06 22:58:00,16.5,11.1,29.75,SSW,193,4.0,4.0,79,0.00,,,0.00,0.0,meteohub,2013-03-07 04:58:00,
2013-03-06 23:00:00,16.2,11.1,29.75,SSW,193,2.0,5.0,80,0.00,,,0.00,0.0,meteohub,2013-03-07 05:00:00,
2013-03-06 23:01:00,16.2,11.1,29.75,SSW,193,1.0,5.0,80,0.00,,,0.00,0.0,meteohub,2013-03-07 05:01:00,
2013-03-06 23:02:00,16.2,11.3,29.75,SSW,193,1.0,5.0,81,0.00,,,0.00,0.0,meteohub,2013-03-07 05:02:00,
2013-03-06 23:07:00,16.2,11.7,29.75,SSW,193,0.0,5.0,82,0.00,,,0.00,0.0,meteohub,2013-03-07 05:07:00,
2013-03-06 23:12:00,16.2,11.3,29.75,SSW,193,1.0,5.0,81,0.00,,,0.00,0.0,meteohub,2013-03-07 05:12:00,
2013-03-06 23:17:00,15.6,10.8,29.75,SSW,194,2.0,5.0,81,0.00,,,0.00,0.0,meteohub,2013-03-07 05:17:00,
2013-03-06 23:22:00,15.1,10.6,29.75,SSW,194,3.0,4.0,82,0.00,,,0.00,0.0,meteohub,2013-03-07 05:22:00,
2013-03-06 23:27:00,14.5,10.0,29.75,SSW,194,2.0,4.0,82,0.00,,,0.00,0.0,meteohub,2013-03-07 05:27:00,
2013-03-06 23:32:00,14.4,10.4,29.75,SSW,194,2.0,4.0,84,0.00,,,0.00,0.0,meteohub,2013-03-07 05:32:00,
2013-03-06 23:37:00,15.3,11.5,29.75,SSW,194,2.0,4.0,85,0.00,,,0.00,0.0,meteohub,2013-03-07 05:37:00,
2013-03-06 23:42:00,15.4,11.5,29.75,SSW,194,0.0,4.0,84,0.00,,,0.00,0.0,meteohub,2013-03-07 05:42:00,
2013-03-06 23:47:00,15.1,10.9,29.75,SSW,194,0.0,4.0,83,0.00,,,0.00,0.0,meteohub,2013-03-07 05:47:00,
2013-03-06 23:52:00,13.5,9.0,29.75,SSW,194,1.0,4.0,82,0.00,,,0.00,0.0,meteohub,2013-03-07 05:52:00,
2013-03-06 23:57:00,12.6,8.6,29.76,SSW,194,0.0,3.0,84,0.00,,,0.00,0.0,meteohub,2013-03-07 05:57:00,